This demonstration page uses our WeatherBlox Daily Observations layout. Learn more.

39.92423, -83.80882

Hourly Observations for December 18, 2018

Temp ( °F °C ) Dew Point ( °F °C ) Humidity (%) Winds ( mph kmh ) Pressure ( in mb ) Visibility ( mi km ) Precip ( " mm )
12:56 am 00:56 Clear 28 -2.2 27 -2.8 96 96 NNW 7 11 30.21 1023 10 16.0934 0 0
1:56 am 01:56 Clear 28 -2.2 27 -2.8 96 96 NNW 5 7 30.2 1023 10 16.0934 0 0
2:56 am 02:56 Clear 27 -2.8 26 -3.3 96 96 Calm 30.21 1023 10 16.0934 0 0
3:56 am 03:56 Clear 27 -2.8 26 -3.3 96 96 NNW 5 7 30.22 1024 10 16.0934 0 0
4:56 am 04:56 Clear 27 -2.8 27 -2.8 100 100 NW 3 6 30.24 1024 10 16.0934 0 0
5:56 am 05:56 Clear with Mist and Fog 25 -3.9 25 -3.9 100 100 Calm 30.25 1025 5 8.0467 0 0
6:56 am 06:56 Clear 25 -3.9 24 -4.4 96 96 NNE 5 7 30.26 1025 10 16.0934 0 0
7:56 am 07:56 Sunny with Mist and Fog 24 -4.4 24 -4.4 100 100 Calm 30.28 1025 2.5 4.02335 0 0
8:13 am 08:13 Sunny with Mist and Fog 25 -4 25 -4 100 100 Calm 30.33 1027 3 4.82802 0 0
8:20 am 08:20 Sunny with Mist and Fog 25 -4 25 -4 100 100 Calm 30.33 1027 2 3.21868 0 0
8:31 am 08:31 Sunny with Mist and Fog 27 -3 27 -3 100 100 Calm 30.33 1027 4 6.43736 0 0
8:56 am 08:56 Sunny 26 -3.3 26 -3.3 100 100 Calm 30.29 1026 7 11.26538 0 0
9:56 am 09:56 Sunny 30 -1.1 29 -1.7 96 96 E 5 7 30.29 1026 10 16.0934 0 0
10:56 am 10:56 Sunny 34 1.1 29 -1.7 82 82 SE 7 11 30.29 1026 10 16.0934 0 0
11:56 am 11:56 Sunny 36 2.2 29 -1.7 76 76 SE 3 6 30.27 1025 10 16.0934 0 0
12:56 pm 12:56 Sunny 38 3.3 30 -1.1 73 73 SSE 3 6 30.25 1024 10 16.0934 0 0
1:56 pm 13:56 Sunny 40 4.4 29 -1.7 65 65 undefined N/A 30.22 1023 10 16.0934 0 0
2:56 pm 14:56 Sunny 40 4.4 30 -1.1 68 68 SE 3 6 30.21 1023 10 16.0934 0 0
3:56 pm 15:56 Sunny 40 4.4 30 -1.1 68 68 SE 5 7 30.21 1023 10 16.0934 0 0
4:56 pm 16:56 Sunny 35 1.7 27 -2.8 72 72 ESE 6 9 30.2 1023 10 16.0934 0 0
5:56 pm 17:56 Clear 32 0 29 -1.7 88 88 E 5 7 30.19 1022 10 16.0934 0 0
6:56 pm 18:56 Clear 34 1.1 29 -1.7 82 82 SSE 5 7 30.19 1023 10 16.0934 0 0
7:56 pm 19:56 Clear 33 0.6 28 -2.2 82 82 SE 6 9 30.2 1023 10 16.0934 0 0
8:56 pm 20:56 Clear 29 -1.7 28 -2.2 96 96 SE 5 7 30.19 1023 10 16.0934 0 0
9:56 pm 21:56 Clear 29 -1.7 27 -2.8 92 92 SE 6 9 30.19 1022 10 16.0934 0 0
10:56 pm 22:56 Clear 28 -2.2 26 -3.3 92 92 SE 5 7 30.16 1021 10 16.0934 0 0
11:56 pm 23:56 Clear 28 -2.2 26 -3.3 92 92 SE 7 11 30.14 1021 10 16.0934 0 0

Powered by AerisWeather